,,PressureMeas_1m,,PRMeasQMR101_1,,RHStat155_1m_1,,SRMeasQMS101R_1m,,TAStat155_1m_1,,GenWind_1,,GenWind_1,
2019-09-13, 00:00:06,VALID,920.141,VALID,0.0,VALID,97.057,VALID,-0.03,VALID,21.252,INVALID,360.0,VALID,0.0,
2019-09-13, 00:01:06,VALID,920.132,VALID,0.0,VALID,97.155,VALID,-0.032,VALID,21.224,INVALID,360.0,VALID,0.0,
2019-09-13, 00:02:06,VALID,920.128,VALID,0.0,VALID,97.313,VALID,-0.028,VALID,21.191,INVALID,360.0,VALID,0.0,
2019-09-13, 00:03:06,VALID,920.12,VALID,0.0,VALID,97.437,VALID,-0.017,VALID,21.162,INVALID,360.0,VALID,0.0,
2019-09-13, 00:04:06,VALID,920.122,VALID,0.0,VALID,97.551,VALID,-0.018,VALID,21.171,INVALID,360.0,VALID,0.0,
2019-09-13, 00:05:06,VALID,920.118,VALID,0.0,VALID,97.601,VALID,0.007,VALID,21.223,INVALID,360.0,VALID,0.0,
2019-09-13, 00:06:06,VALID,920.092,VALID,0.0,VALID,97.428,VALID,0.01,VALID,21.238,INVALID,360.0,VALID,0.0,
2019-09-13, 00:07:06,VALID,920.075,VALID,0.0,VALID,97.264,VALID,0.011,VALID,21.241,INVALID,360.0,VALID,0.0,
2019-09-13, 00:08:06,VALID,920.05,VALID,0.0,VALID,97.395,VALID,0.012,VALID,21.297,INVALID,360.0,VALID,0.0,
2019-09-13, 00:09:06,VALID,920.026,VALID,0.0,VALID,97.27,VALID,-0.002,VALID,21.323,INVALID,360.0,VALID,0.0,
2019-09-13, 00:10:06,VALID,920.022,VALID,0.0,VALID,96.86,VALID,0.008,VALID,21.3,INVALID,360.0,VALID,0.0,
2019-09-13, 00:11:06,VALID,920.016,VALID,0.0,VALID,96.605,VALID,0.022,VALID,21.255,INVALID,360.0,VALID,0.0,
2019-09-13, 00:12:06,VALID,919.988,VALID,0.0,VALID,96.598,VALID,0.006,VALID,21.213,INVALID,360.0,VALID,0.0,
2019-09-13, 00:13:06,VALID,919.98,VALID,0.0,VALID,96.81,VALID,0.01,VALID,21.221,INVALID,360.0,VALID,0.0,
2019-09-13, 00:14:06,VALID,919.983,VALID,0.0,VALID,96.762,VALID,0.019,VALID,21.212,INVALID,360.0,VALID,0.0,
2019-09-13, 00:15:06,VALID,919.988,VALID,0.0,VALID,96.939,VALID,0.015,VALID,21.212,INVALID,360.0,VALID,0.0,
2019-09-13, 00:16:06,VALID,919.978,VALID,0.0,VALID,97.043,VALID,0.013,VALID,21.223,INVALID,360.0,VALID,0.0,
2019-09-13, 00:17:06,VALID,919.976,VALID,0.0,VALID,97.1,VALID,0.024,VALID,21.258,INVALID,360.0,VALID,0.0,
2019-09-13, 00:18:06,VALID,919.945,VALID,0.0,VALID,96.961,VALID,0.013,VALID,21.258,INVALID,360.0,VALID,0.0,
2019-09-13, 00:19:06,VALID,919.955,VALID,0.0,VALID,96.84,VALID,0.003,VALID,21.278,INVALID,360.0,VALID,0.0,
2019-09-13, 00:20:06,VALID,919.959,VALID,0.0,VALID,96.615,VALID,-0.0,VALID,21.26,INVALID,360.0,VALID,0.0,
2019-09-13, 00:21:06,VALID,919.943,VALID,0.0,VALID,96.659,VALID,0.021,VALID,21.235,INVALID,360.0,VALID,0.0,
2019-09-13, 00:22:06,VALID,919.94,VALID,0.0,VALID,96.771,VALID,0.044,VALID,21.23,INVALID,360.0,VALID,0.0,
2019-09-13, 00:23:06,VALID,919.936,VALID,0.0,VALID,96.777,VALID,0.006,VALID,21.24,INVALID,360.0,VALID,0.0,
2019-09-13, 00:24:06,VALID,919.934,VALID,0.0,VALID,96.687,VALID,-0.005,VALID,21.237,INVALID,360.0,VALID,0.0,
2019-09-13, 00:25:06,VALID,919.935,VALID,0.0,VALID,96.735,VALID,0.009,VALID,21.219,INVALID,360.0,VALID,0.0,
2019-09-13, 00:26:06,VALID,919.95,VALID,0.0,VALID,96.875,VALID,-0.001,VALID,21.208,INVALID,360.0,VALID,0.0,
2019-09-13, 00:27:06,VALID,919.953,VALID,0.0,VALID,96.858,VALID,-0.009,VALID,21.185,INVALID,360.0,VALID,0.0,
2019-09-13, 00:28:06,VALID,919.934,VALID,0.0,VALID,96.989,VALID,0.006,VALID,21.184,INVALID,360.0,VALID,0.0,
2019-09-13, 00:29:06,VALID,919.947,VALID,0.0,VALID,97.027,VALID,0.021,VALID,21.187,INVALID,360.0,VALID,0.0,
2019-09-13, 00:30:06,VALID,919.917,VALID,0.0,VALID,97.019,VALID,0.021,VALID,21.176,INVALID,360.0,VALID,0.0,
2019-09-13, 00:31:06,VALID,919.912,VALID,0.0,VALID,96.949,VALID,0.017,VALID,21.131,INVALID,360.0,VALID,0.0,
2019-09-13, 00:32:06,VALID,919.898,VALID,0.0,VALID,96.95,VALID,0.016,VALID,21.07,INVALID,360.0,VALID,0.0,
2019-09-13, 00:33:06,VALID,919.891,VALID,0.0,VALID,97.197,VALID,0.015,VALID,21.04,INVALID,360.0,VALID,0.0,
2019-09-13, 00:34:06,VALID,919.888,VALID,0.0,VALID,97.382,VALID,0.02,VALID,21.025,INVALID,360.0,VALID,0.0,
2019-09-13, 00:35:06,VALID,919.865,VALID,0.0,VALID,97.493,VALID,-0.001,VALID,21.026,INVALID,360.0,VALID,0.0,
2019-09-13, 00:36:06,VALID,919.852,VALID,0.0,VALID,97.553,VALID,0.016,VALID,21.03,INVALID,360.0,VALID,0.0,
2019-09-13, 00:37:06,VALID,919.826,VALID,0.0,VALID,97.645,VALID,0.012,VALID,21.057,INVALID,360.0,VALID,0.0,
2019-09-13, 00:38:06,VALID,919.827,VALID,0.0,VALID,97.644,VALID,0.013,VALID,21.077,INVALID,360.0,VALID,0.0,
2019-09-13, 00:39:06,VALID,919.813,VALID,0.0,VALID,97.534,VALID,0.022,VALID,21.08,INVALID,360.0,VALID,0.0,
2019-09-13, 00:40:06,VALID,919.792,VALID,0.0,VALID,97.559,VALID,-0.001,VALID,21.093,INVALID,360.0,VALID,0.0,
2019-09-13, 00:41:06,VALID,919.77,VALID,0.0,VALID,97.613,VALID,-0.006,VALID,21.124,INVALID,360.0,VALID,0.0,
2019-09-13, 00:42:06,VALID,919.754,VALID,0.0,VALID,97.585,VALID,0.02,VALID,21.177,INVALID,360.0,VALID,0.0,
2019-09-13, 00:43:06,VALID,919.729,VALID,0.0,VALID,97.402,VALID,0.001,VALID,21.194,INVALID,360.0,VALID,0.0,
2019-09-13, 00:44:06,VALID,919.71,VALID,0.0,VALID,97.221,VALID,0.002,VALID,21.205,INVALID,360.0,VALID,0.0,
2019-09-13, 00:45:06,VALID,919.691,VALID,0.0,VALID,97.026,VALID,0.016,VALID,21.204,INVALID,360.0,VALID,0.0,
2019-09-13, 00:46:06,VALID,919.649,VALID,0.0,VALID,97.01,VALID,0.015,VALID,21.204,INVALID,360.0,VALID,0.0,
2019-09-13, 00:47:06,VALID,919.608,VALID,0.0,VALID,96.944,VALID,0.014,VALID,21.209,INVALID,360.0,VALID,0.0,
2019-09-13, 00:48:06,VALID,919.602,VALID,0.0,VALID,96.944,VALID,0.003,VALID,21.209,INVALID,360.0,VALID,0.0,
2019-09-13, 00:49:06,VALID,919.582,VALID,0.0,VALID,96.744,VALID,-0.011,VALID,21.194,INVALID,360.0,VALID,0.0,
2019-09-13, 00:50:06,VALID,919.559,VALID,0.0,VALID,96.585,VALID,0.0,VALID,21.122,INVALID,360.0,VALID,0.0,
2019-09-13, 00:51:06,VALID,919.545,VALID,0.0,VALID,96.833,VALID,0.002,VALID,21.069,INVALID,360.0,VALID,0.0,
2019-09-13, 00:52:06,VALID,919.545,VALID,0.0,VALID,97.1,VALID,0.006,VALID,21.035,INVALID,360.0,VALID,0.0,
2019-09-13, 00:53:06,VALID,919.547,VALID,0.0,VALID,97.21,VALID,0.007,VALID,20.997,INVALID,360.0,VALID,0.0,
2019-09-13, 00:54:06,VALID,919.546,VALID,0.0,VALID,97.237,VALID,0.002,VALID,20.958,INVALID,360.0,VALID,0.0,
2019-09-13, 00:55:06,VALID,919.54,VALID,0.0,VALID,97.266,VALID,-0.002,VALID,20.924,INVALID,360.0,VALID,0.0,
2019-09-13, 00:56:06,VALID,919.539,VALID,0.0,VALID,97.36,VALID,0.008,VALID,20.916,INVALID,360.0,VALID,0.0,
2019-09-13, 00:57:06,VALID,919.507,VALID,0.0,VALID,97.401,VALID,0.011,VALID,20.888,INVALID,360.0,VALID,0.0,
2019-09-13, 00:58:06,VALID,919.506,VALID,0.0,VALID,97.57,VALID,0.022,VALID,20.872,INVALID,360.0,VALID,0.0,
2019-09-13, 00:59:06,VALID,919.489,VALID,0.0,VALID,97.682,VALID,0.015,VALID,20.86,INVALID,360.0,VALID,0.0,
2019-09-13, 01:00:06,VALID,919.503,VALID,0.0,VALID,97.769,VALID,0.008,VALID,20.844,INVALID,360.0,VALID,0.0,
2019-09-13, 01:01:06,VALID,919.508,VALID,0.0,VALID,97.902,VALID,0.011,VALID,20.837,INVALID,360.0,VALID,0.0,
2019-09-13, 01:02:06,VALID,919.496,VALID,0.0,VALID,98.039,VALID,0.005,VALID,20.862,INVALID,360.0,VALID,0.0,
2019-09-13, 01:03:06,VALID,919.512,VALID,0.0,VALID,98.167,VALID,0.013,VALID,20.9,INVALID,360.0,VALID,0.0,
2019-09-13, 01:04:06,VALID,919.522,VALID,0.0,VALID,98.053,VALID,0.015,VALID,20.892,INVALID,360.0,VALID,0.0,
2019-09-13, 01:05:06,VALID,919.516,VALID,0.0,VALID,98.038,VALID,0.007,VALID,20.9,INVALID,360.0,VALID,0.0,
2019-09-13, 01:06:06,VALID,919.541,VALID,0.0,VALID,97.996,VALID,0.01,VALID,20.913,INVALID,360.0,VALID,0.0,
2019-09-13, 01:07:06,VALID,919.519,VALID,0.0,VALID,97.934,VALID,0.006,VALID,20.939,INVALID,360.0,VALID,0.0,
2019-09-13, 01:08:06,VALID,919.52,VALID,0.0,VALID,97.72,VALID,0.005,VALID,20.934,INVALID,360.0,VALID,0.0,
2019-09-13, 01:09:06,VALID,919.515,VALID,0.0,VALID,97.668,VALID,0.003,VALID,20.943,INVALID,360.0,VALID,0.0,
2019-09-13, 01:10:06,VALID,919.506,VALID,0.0,VALID,97.557,VALID,0.014,VALID,20.948,INVALID,360.0,VALID,0.0,
2019-09-13, 01:11:06,VALID,919.497,VALID,0.0,VALID,97.414,VALID,0.011,VALID,20.931,INVALID,360.0,VALID,0.0,
2019-09-13, 01:12:06,VALID,919.48,VALID,0.0,VALID,97.29,VALID,0.017,VALID,20.904,INVALID,360.0,VALID,0.0,
2019-09-13, 01:13:06,VALID,919.482,VALID,0.0,VALID,97.285,VALID,0.021,VALID,20.897,INVALID,360.0,VALID,0.0,
2019-09-13, 01:14:06,VALID,919.47,VALID,0.0,VALID,97.357,VALID,0.018,VALID,20.919,INVALID,360.0,VALID,0.0,
2019-09-13, 01:15:06,VALID,919.449,VALID,0.0,VALID,97.294,VALID,0.02,VALID,20.933,INVALID,360.0,VALID,0.0,
2019-09-13, 01:16:06,VALID,919.422,VALID,0.0,VALID,97.252,VALID,0.018,VALID,20.931,INVALID,360.0,VALID,0.0,
2019-09-13, 01:17:06,VALID,919.39,VALID,0.0,VALID,97.169,VALID,0.015,VALID,20.925,INVALID,360.0,VALID,0.0,
2019-09-13, 01:18:06,VALID,919.388,VALID,0.0,VALID,97.162,VALID,0.008,VALID,20.909,INVALID,360.0,VALID,0.0,
2019-09-13, 01:19:06,VALID,919.362,VALID,0.0,VALID,97.291,VALID,0.01,VALID,20.912,INVALID,360.0,VALID,0.0,
2019-09-13, 01:20:06,VALID,919.362,VALID,0.0,VALID,97.246,VALID,0.003,VALID,20.919,INVALID,360.0,VALID,0.0,
2019-09-13, 01:21:06,VALID,919.369,VALID,0.0,VALID,97.185,VALID,0.003,VALID,20.924,INVALID,360.0,VALID,0.0,
2019-09-13, 01:22:06,VALID,919.35,VALID,0.0,VALID,97.151,VALID,-0.003,VALID,20.919,INVALID,360.0,VALID,0.0,
2019-09-13, 01:23:06,VALID,919.347,VALID,0.0,VALID,97.096,VALID,-0.007,VALID,20.911,INVALID,360.0,VALID,0.0,
2019-09-13, 01:24:06,VALID,919.351,VALID,0.0,VALID,97.203,VALID,-0.012,VALID,20.912,INVALID,360.0,VALID,0.0,
2019-09-13, 01:25:06,VALID,919.355,VALID,0.0,VALID,97.24,VALID,-0.008,VALID,20.926,INVALID,360.0,VALID,0.0,
2019-09-13, 01:26:06,VALID,919.347,VALID,0.0,VALID,97.326,VALID,-0.039,VALID,20.948,INVALID,360.0,VALID,0.0,
2019-09-13, 01:27:06,VALID,919.325,VALID,0.0,VALID,97.468,VALID,-0.031,VALID,20.974,INVALID,360.0,VALID,0.0,
2019-09-13, 01:28:06,VALID,919.305,VALID,0.0,VALID,97.458,VALID,-0.014,VALID,20.987,INVALID,360.0,VALID,0.0,
2019-09-13, 01:29:06,VALID,919.292,VALID,0.0,VALID,97.362,VALID,-0.036,VALID,20.987,INVALID,360.0,VALID,0.0,
2019-09-13, 01:30:06,VALID,919.304,VALID,0.0,VALID,97.428,VALID,-0.032,VALID,20.993,INVALID,360.0,VALID,0.0,
2019-09-13, 01:31:06,VALID,919.288,VALID,0.0,VALID,97.528,VALID,-0.006,VALID,21.048,INVALID,360.0,VALID,0.0,
2019-09-13, 01:32:06,VALID,919.289,VALID,0.0,VALID,97.304,VALID,-0.012,VALID,21.074,INVALID,360.0,VALID,0.0,
2019-09-13, 01:33:06,VALID,919.288,VALID,0.0,VALID,97.039,VALID,-0.027,VALID,21.085,INVALID,360.0,VALID,0.0,
2019-09-13, 01:34:06,VALID,919.283,VALID,0.0,VALID,96.971,VALID,-0.019,VALID,21.079,INVALID,360.0,VALID,0.0,
2019-09-13, 01:35:06,VALID,919.291,VALID,0.0,VALID,97.047,VALID,0.019,VALID,21.073,INVALID,360.0,VALID,0.0,
2019-09-13, 01:36:06,VALID,919.276,VALID,0.0,VALID,97.074,VALID,0.011,VALID,21.068,INVALID,360.0,VALID,0.0,
2019-09-13, 01:37:06,VALID,919.298,VALID,0.0,VALID,97.142,VALID,-0.007,VALID,21.075,INVALID,360.0,VALID,0.0,
2019-09-13, 01:38:06,VALID,919.291,VALID,0.0,VALID,97.156,VALID,0.001,VALID,21.08,INVALID,360.0,VALID,0.0,
2019-09-13, 01:39:06,VALID,919.292,VALID,0.0,VALID,97.06,VALID,0.014,VALID,21.081,INVALID,360.0,VALID,0.0,
2019-09-13, 01:40:06,VALID,919.306,VALID,0.0,VALID,97.009,VALID,0.011,VALID,21.064,INVALID,360.0,VALID,0.0,
2019-09-13, 01:41:06,VALID,919.308,VALID,0.0,VALID,97.161,VALID,0.003,VALID,21.062,INVALID,360.0,VALID,0.0,
2019-09-13, 01:42:06,VALID,919.314,VALID,0.0,VALID,97.162,VALID,0.001,VALID,21.042,INVALID,360.0,VALID,0.0,
2019-09-13, 01:43:06,VALID,919.309,VALID,0.0,VALID,97.15,VALID,0.011,VALID,21.016,INVALID,360.0,VALID,0.0,
2019-09-13, 01:44:06,VALID,919.292,VALID,0.0,VALID,97.401,VALID,0.011,VALID,21.047,INVALID,360.0,VALID,0.0,
2019-09-13, 01:45:06,VALID,919.281,VALID,0.0,VALID,97.422,VALID,0.0,VALID,21.064,INVALID,360.0,VALID,0.0,
2019-09-13, 01:46:06,VALID,919.272,VALID,0.0,VALID,97.258,VALID,0.005,VALID,21.056,INVALID,360.0,VALID,0.0,
2019-09-13, 01:47:06,VALID,919.267,VALID,0.0,VALID,97.116,VALID,-0.01,VALID,21.032,INVALID,360.0,VALID,0.0,
2019-09-13, 01:48:06,VALID,919.266,VALID,0.0,VALID,96.944,VALID,0.006,VALID,20.981,INVALID,360.0,VALID,0.0,
2019-09-13, 01:49:06,VALID,919.24,VALID,0.0,VALID,97.032,VALID,-0.0,VALID,20.95,INVALID,360.0,VALID,0.0,
2019-09-13, 01:50:06,VALID,919.256,VALID,0.0,VALID,97.252,VALID,0.002,VALID,20.953,INVALID,360.0,VALID,0.0,
2019-09-13, 01:51:06,VALID,919.26,VALID,0.0,VALID,97.421,VALID,0.003,VALID,20.975,INVALID,360.0,VALID,0.0,
2019-09-13, 01:52:06,VALID,919.244,VALID,0.0,VALID,97.508,VALID,-0.001,VALID,21.001,INVALID,360.0,VALID,0.0,
2019-09-13, 01:53:06,VALID,919.217,VALID,0.0,VALID,97.198,VALID,0.018,VALID,20.978,INVALID,360.0,VALID,0.0,
2019-09-13, 01:54:06,VALID,919.23,VALID,0.0,VALID,97.075,VALID,0.011,VALID,20.967,INVALID,360.0,VALID,0.0,
2019-09-13, 01:55:06,VALID,919.207,VALID,0.0,VALID,97.092,VALID,0.018,VALID,20.986,INVALID,360.0,VALID,0.0,
2019-09-13, 01:56:06,VALID,919.209,VALID,0.0,VALID,96.882,VALID,0.006,VALID,20.978,INVALID,360.0,VALID,0.0,
2019-09-13, 01:57:06,VALID,919.186,VALID,0.0,VALID,96.69,VALID,0.02,VALID,20.944,INVALID,360.0,VALID,0.0,
2019-09-13, 01:58:06,VALID,919.182,VALID,0.0,VALID,96.434,VALID,0.018,VALID,20.9,INVALID,360.0,VALID,0.0,
2019-09-13, 01:59:06,VALID,919.168,VALID,0.0,VALID,96.229,VALID,0.007,VALID,20.893,INVALID,360.0,VALID,0.0,
2019-09-13, 02:00:06,VALID,919.165,VALID,0.0,VALID,96.14,VALID,0.011,VALID,20.903,VALID,2.0,VALID,0.0,
2019-09-13, 02:01:06,VALID,919.163,VALID,0.0,VALID,96.566,VALID,0.002,VALID,20.908,VALID,2.0,VALID,0.0,
2019-09-13, 02:02:06,VALID,919.145,VALID,0.0,VALID,96.814,VALID,0.016,VALID,20.893,VALID,2.0,VALID,0.0,
2019-09-13, 02:03:06,VALID,919.157,VALID,0.0,VALID,96.955,VALID,-0.001,VALID,20.883,VALID,2.0,VALID,0.0,
2019-09-13, 02:04:06,VALID,919.142,VALID,0.0,VALID,96.939,VALID,0.008,VALID,20.879,VALID,2.0,VALID,0.0,
2019-09-13, 02:05:06,VALID,919.158,VALID,0.0,VALID,96.922,VALID,0.021,VALID,20.882,VALID,2.0,VALID,0.0,
2019-09-13, 02:06:06,VALID,919.151,VALID,0.0,VALID,96.84,VALID,0.015,VALID,20.863,VALID,2.0,VALID,0.0,
2019-09-13, 02:07:06,VALID,919.152,VALID,0.0,VALID,96.805,VALID,0.014,VALID,20.826,VALID,2.0,VALID,0.0,
2019-09-13, 02:08:06,VALID,919.138,VALID,0.0,VALID,96.792,VALID,0.008,VALID,20.788,VALID,2.0,VALID,0.0,
2019-09-13, 02:09:06,VALID,919.124,VALID,0.0,VALID,96.738,VALID,0.004,VALID,20.769,VALID,2.0,VALID,0.0,
2019-09-13, 02:10:06,VALID,919.117,VALID,0.0,VALID,96.8,VALID,0.004,VALID,20.768,VALID,2.0,VALID,0.0,
2019-09-13, 02:11:06,VALID,919.122,VALID,0.0,VALID,96.687,VALID,0.003,VALID,20.732,VALID,2.0,VALID,0.0,
2019-09-13, 02:12:06,VALID,919.117,VALID,0.0,VALID,96.568,VALID,0.009,VALID,20.686,VALID,2.0,VALID,0.0,
2019-09-13, 02:13:06,VALID,919.117,VALID,0.0,VALID,96.615,VALID,0.021,VALID,20.655,VALID,2.0,VALID,0.0,
2019-09-13, 02:14:06,VALID,919.105,VALID,0.0,VALID,96.785,VALID,0.022,VALID,20.627,VALID,2.0,VALID,0.0,
2019-09-13, 02:15:06,VALID,919.115,VALID,0.0,VALID,96.973,VALID,0.01,VALID,20.601,VALID,2.0,VALID,0.0,
2019-09-13, 02:16:06,VALID,919.107,VALID,0.0,VALID,96.983,VALID,0.014,VALID,20.554,VALID,2.0,VALID,0.0,
2019-09-13, 02:17:06,VALID,919.093,VALID,0.0,VALID,96.991,VALID,0.03,VALID,20.519,VALID,2.0,VALID,0.0,
2019-09-13, 02:18:06,VALID,919.114,VALID,0.0,VALID,96.932,VALID,0.009,VALID,20.48,INVALID,360.0,VALID,0.0,
2019-09-13, 02:19:06,VALID,919.11,VALID,0.0,VALID,96.819,VALID,0.022,VALID,20.419,INVALID,360.0,VALID,0.0,
2019-09-13, 02:20:06,VALID,919.125,VALID,0.0,VALID,96.87,VALID,0.005,VALID,20.391,INVALID,360.0,VALID,0.0,
2019-09-13, 02:21:06,VALID,919.113,VALID,0.0,VALID,97.06,VALID,-0.006,VALID,20.393,VALID,3.0,VALID,0.0,
2019-09-13, 02:22:06,VALID,919.119,VALID,0.0,VALID,97.164,VALID,0.01,VALID,20.396,VALID,2.0,VALID,0.0,
2019-09-13, 02:23:06,VALID,919.132,VALID,0.0,VALID,97.412,VALID,0.02,VALID,20.424,VALID,2.0,VALID,0.0,
2019-09-13, 02:24:06,VALID,919.125,VALID,0.0,VALID,97.65,VALID,0.016,VALID,20.445,VALID,2.0,VALID,0.0,
2019-09-13, 02:25:06,VALID,919.133,VALID,0.0,VALID,97.728,VALID,0.006,VALID,20.441,VALID,1.0,VALID,0.0,
2019-09-13, 02:26:06,VALID,919.124,VALID,0.0,VALID,97.239,VALID,0.001,VALID,20.3,VALID,2.0,VALID,0.0,
2019-09-13, 02:27:06,VALID,919.125,VALID,0.0,VALID,96.846,VALID,-0.001,VALID,20.198,VALID,2.0,VALID,0.0,
2019-09-13, 02:28:06,VALID,919.126,VALID,0.0,VALID,96.878,VALID,0.009,VALID,20.149,VALID,1.0,VALID,0.0,
2019-09-13, 02:29:06,VALID,919.115,VALID,0.0,VALID,97.242,VALID,0.013,VALID,20.159,VALID,1.0,VALID,0.0,
2019-09-13, 02:30:06,VALID,919.098,VALID,0.0,VALID,97.539,VALID,0.003,VALID,20.176,VALID,1.0,VALID,0.0,
2019-09-13, 02:31:06,VALID,919.067,VALID,0.0,VALID,97.824,VALID,0.011,VALID,20.201,VALID,3.0,VALID,0.0,
2019-09-13, 02:32:06,VALID,919.069,VALID,0.0,VALID,97.924,VALID,0.005,VALID,20.182,VALID,2.0,VALID,0.0,
2019-09-13, 02:33:06,VALID,919.066,VALID,0.0,VALID,98.019,VALID,-0.008,VALID,20.203,VALID,1.0,VALID,0.0,
2019-09-13, 02:34:06,VALID,919.07,VALID,0.0,VALID,98.258,VALID,-0.016,VALID,20.231,VALID,1.0,VALID,0.0,
2019-09-13, 02:35:06,VALID,919.094,VALID,0.0,VALID,98.317,VALID,0.007,VALID,20.215,VALID,1.0,VALID,0.0,
2019-09-13, 02:36:06,VALID,919.11,VALID,0.0,VALID,98.306,VALID,0.015,VALID,20.192,INVALID,360.0,VALID,0.0,
2019-09-13, 02:37:06,VALID,919.132,VALID,0.0,VALID,98.17,VALID,0.028,VALID,20.135,INVALID,360.0,VALID,0.0,
2019-09-13, 02:38:06,VALID,919.147,VALID,0.0,VALID,98.153,VALID,0.007,VALID,20.14,INVALID,360.0,VALID,0.0,
2019-09-13, 02:39:06,VALID,919.148,VALID,0.0,VALID,98.207,VALID,0.014,VALID,20.179,INVALID,360.0,VALID,0.0,
2019-09-13, 02:40:06,VALID,919.154,VALID,0.0,VALID,98.335,VALID,0.028,VALID,20.223,INVALID,360.0,VALID,0.0,
2019-09-13, 02:41:06,VALID,919.151,VALID,0.0,VALID,98.442,VALID,0.021,VALID,20.265,INVALID,360.0,VALID,0.0,
2019-09-13, 02:42:06,VALID,919.151,VALID,0.0,VALID,98.545,VALID,0.021,VALID,20.315,INVALID,360.0,VALID,0.0,
2019-09-13, 02:43:06,VALID,919.139,VALID,0.0,VALID,98.575,VALID,0.019,VALID,20.335,INVALID,360.0,VALID,0.0,
2019-09-13, 02:44:06,VALID,919.145,VALID,0.0,VALID,98.488,VALID,0.011,VALID,20.299,INVALID,360.0,VALID,0.0,
2019-09-13, 02:45:06,VALID,919.145,VALID,0.0,VALID,98.347,VALID,0.027,VALID,20.246,INVALID,360.0,VALID,0.0,
2019-09-13, 02:46:06,VALID,919.151,VALID,0.0,VALID,98.14,VALID,0.015,VALID,20.181,INVALID,360.0,VALID,0.0,
2019-09-13, 02:47:06,VALID,919.147,VALID,0.0,VALID,98.07,VALID,0.021,VALID,20.148,INVALID,360.0,VALID,0.0,
2019-09-13, 02:48:06,VALID,919.161,VALID,0.0,VALID,98.082,VALID,0.028,VALID,20.126,INVALID,360.0,VALID,0.0,
2019-09-13, 02:49:06,VALID,919.151,VALID,0.0,VALID,98.235,VALID,0.016,VALID,20.146,INVALID,360.0,VALID,0.0,
2019-09-13, 02:50:06,VALID,919.174,VALID,0.0,VALID,98.375,VALID,0.016,VALID,20.168,INVALID,360.0,VALID,0.0,
2019-09-13, 02:51:06,VALID,919.15,VALID,0.0,VALID,98.252,VALID,0.018,VALID,20.093,INVALID,360.0,VALID,0.0,
2019-09-13, 02:52:06,VALID,919.158,VALID,0.0,VALID,97.967,VALID,0.018,VALID,20.023,INVALID,360.0,VALID,0.0,
2019-09-13, 02:53:06,VALID,919.17,VALID,0.0,VALID,97.992,VALID,-0.011,VALID,20.041,INVALID,360.0,VALID,0.0,
2019-09-13, 02:54:06,VALID,919.181,VALID,0.0,VALID,97.942,VALID,-0.0,VALID,20.032,INVALID,360.0,VALID,0.0,
2019-09-13, 02:55:06,VALID,919.146,VALID,0.0,VALID,97.876,VALID,0.008,VALID,20.028,INVALID,360.0,VALID,0.0,
2019-09-13, 02:56:06,VALID,919.156,VALID,0.0,VALID,97.872,VALID,0.006,VALID,20.029,INVALID,360.0,VALID,0.0,
2019-09-13, 02:57:06,VALID,919.126,VALID,0.0,VALID,97.937,VALID,-0.002,VALID,20.069,INVALID,360.0,VALID,0.0,
2019-09-13, 02:58:06,VALID,919.12,VALID,0.0,VALID,98.214,VALID,0.016,VALID,20.162,INVALID,360.0,VALID,0.0,
2019-09-13, 02:59:06,VALID,919.127,VALID,0.0,VALID,98.468,VALID,0.03,VALID,20.246,INVALID,360.0,VALID,0.0,
2019-09-13, 03:00:06,VALID,919.142,VALID,0.0,VALID,98.58,VALID,0.012,VALID,20.283,INVALID,360.0,VALID,0.0,
2019-09-13, 03:01:06,VALID,919.143,VALID,0.0,VALID,98.396,VALID,0.019,VALID,20.23,INVALID,360.0,VALID,0.0,
2019-09-13, 03:02:06,VALID,919.155,VALID,0.0,VALID,98.486,VALID,0.009,VALID,20.248,INVALID,360.0,VALID,0.0,
2019-09-13, 03:03:06,VALID,919.159,VALID,0.0,VALID,98.608,VALID,0.01,VALID,20.294,INVALID,360.0,VALID,0.0,
2019-09-13, 03:04:06,VALID,919.166,VALID,0.0,VALID,98.526,VALID,0.005,VALID,20.289,INVALID,360.0,VALID,0.0,
2019-09-13, 03:05:06,VALID,919.177,VALID,0.0,VALID,98.499,VALID,0.009,VALID,20.284,INVALID,360.0,VALID,0.0,
2019-09-13, 03:06:06,VALID,919.189,VALID,0.0,VALID,98.501,VALID,-0.013,VALID,20.3,INVALID,360.0,VALID,0.0,
2019-09-13, 03:07:06,VALID,919.174,VALID,0.0,VALID,98.468,VALID,-0.01,VALID,20.29,INVALID,360.0,VALID,0.0,
2019-09-13, 03:08:06,VALID,919.18,VALID,0.0,VALID,98.366,VALID,-0.03,VALID,20.273,INVALID,360.0,VALID,0.0,
2019-09-13, 03:09:06,VALID,919.167,VALID,0.0,VALID,98.304,VALID,-0.04,VALID,20.27,INVALID,360.0,VALID,0.0,
2019-09-13, 03:10:06,VALID,919.189,VALID,0.0,VALID,98.375,VALID,-0.026,VALID,20.302,INVALID,360.0,VALID,0.0,
2019-09-13, 03:11:06,VALID,919.183,VALID,0.0,VALID,98.429,VALID,-0.033,VALID,20.3,INVALID,360.0,VALID,0.0,
2019-09-13, 03:12:06,VALID,919.159,VALID,0.0,VALID,98.535,VALID,-0.024,VALID,20.313,INVALID,360.0,VALID,0.0,
2019-09-13, 03:13:06,VALID,919.15,VALID,0.0,VALID,98.617,VALID,-0.022,VALID,20.334,INVALID,360.0,VALID,0.0,
2019-09-13, 03:14:06,VALID,919.147,VALID,0.0,VALID,98.649,VALID,-0.014,VALID,20.335,INVALID,360.0,VALID,0.0,
2019-09-13, 03:15:06,VALID,919.151,VALID,0.0,VALID,98.643,VALID,-0.031,VALID,20.324,INVALID,360.0,VALID,0.0,
2019-09-13, 03:16:06,VALID,919.156,VALID,0.0,VALID,98.698,VALID,-0.01,VALID,20.336,INVALID,360.0,VALID,0.0,
2019-09-13, 03:17:06,VALID,919.163,VALID,0.0,VALID,98.725,VALID,-0.001,VALID,20.351,INVALID,360.0,VALID,0.0,
2019-09-13, 03:18:06,VALID,919.185,VALID,0.0,VALID,98.775,VALID,-0.02,VALID,20.392,INVALID,360.0,VALID,0.0,
2019-09-13, 03:19:06,VALID,919.179,VALID,0.0,VALID,98.822,VALID,-0.019,VALID,20.42,INVALID,360.0,VALID,0.0,
2019-09-13, 03:20:06,VALID,919.197,VALID,0.0,VALID,98.801,VALID,0.005,VALID,20.436,INVALID,360.0,VALID,0.0,
2019-09-13, 03:21:06,VALID,919.198,VALID,0.0,VALID,98.783,VALID,-0.007,VALID,20.443,INVALID,360.0,VALID,0.0,
2019-09-13, 03:22:06,VALID,919.214,VALID,0.0,VALID,98.773,VALID,0.0,VALID,20.447,INVALID,360.0,VALID,0.0,
2019-09-13, 03:23:06,VALID,919.212,VALID,0.0,VALID,98.739,VALID,-0.0,VALID,20.448,INVALID,360.0,VALID,0.0,
2019-09-13, 03:24:06,VALID,919.205,VALID,0.0,VALID,98.718,VALID,0.008,VALID,20.451,INVALID,360.0,VALID,0.0,
2019-09-13, 03:25:06,VALID,919.191,VALID,0.0,VALID,98.688,VALID,0.017,VALID,20.456,INVALID,360.0,VALID,0.0,
2019-09-13, 03:26:06,VALID,919.192,VALID,0.0,VALID,98.719,VALID,0.014,VALID,20.483,INVALID,360.0,VALID,0.0,
2019-09-13, 03:27:06,VALID,919.184,VALID,0.0,VALID,98.709,VALID,-0.012,VALID,20.477,INVALID,360.0,VALID,0.0,
2019-09-13, 03:28:06,VALID,919.188,VALID,0.0,VALID,98.632,VALID,0.007,VALID,20.462,INVALID,360.0,VALID,0.0,
2019-09-13, 03:29:06,VALID,919.166,VALID,0.0,VALID,98.648,VALID,-0.004,VALID,20.483,INVALID,360.0,VALID,0.0,
2019-09-13, 03:30:06,VALID,919.167,VALID,0.0,VALID,98.622,VALID,0.007,VALID,20.514,INVALID,360.0,VALID,0.0,
2019-09-13, 03:31:06,VALID,919.154,VALID,0.0,VALID,98.541,VALID,0.001,VALID,20.507,INVALID,360.0,VALID,0.0,
2019-09-13, 03:32:06,VALID,919.138,VALID,0.0,VALID,98.487,VALID,0.016,VALID,20.526,INVALID,360.0,VALID,0.0,
2019-09-13, 03:33:06,VALID,919.124,VALID,0.0,VALID,98.391,VALID,-0.001,VALID,20.54,INVALID,360.0,VALID,0.0,
2019-09-13, 03:34:06,VALID,919.145,VALID,0.0,VALID,98.325,VALID,0.004,VALID,20.556,INVALID,360.0,VALID,0.0,
2019-09-13, 03:35:06,VALID,919.149,VALID,0.0,VALID,98.24,VALID,0.005,VALID,20.571,INVALID,360.0,VALID,0.0,
2019-09-13, 03:36:06,VALID,919.147,VALID,0.0,VALID,98.141,VALID,-0.006,VALID,20.556,INVALID,360.0,VALID,0.0,
2019-09-13, 03:37:06,VALID,919.15,VALID,0.0,VALID,98.128,VALID,0.004,VALID,20.559,INVALID,360.0,VALID,0.0,
2019-09-13, 03:38:06,VALID,919.16,VALID,0.0,VALID,98.064,VALID,0.004,VALID,20.538,INVALID,360.0,VALID,0.0,
2019-09-13, 03:39:06,VALID,919.178,VALID,0.0,VALID,98.067,VALID,-0.006,VALID,20.536,INVALID,360.0,VALID,0.0,